Tracking 31027 objects as of 19-Jul-2025
HD Live streaming from Space Station
objects crossing your sky now

YAOGAN-35 05C

Track YAOGAN-35 05C now!
10-day predictions


NORAD ID: 53763
Int'l Code: 2022-109D
Perigee: 519.1 km
Apogee: 524.3 km
Inclination: 35.0 °
Period: 94.9 minutes
Semi major axis: 6892 km
RCS: Unknown
Launch date: September 6, 2022
Source: People's Republic of China (PRC)
Launch site: Xichang Space Center, China (XSC)
Your satellite tracking list
FENGYUN 1C DEB
Track 1 satellite(s)




NASA's NSSDC Master Catalog

Two Line Element Set (TLE):
1 53763U 22109D   25199.66476403  .00005288  00000-0  26221-3 0  9999
2 53763  34.9928 286.3711 0003749 147.4064 212.6881 15.17113248159587
Source of the keplerian elements: AFSPC